Location: Albuquerque Trailhead
(34.7934°N, 106.3736°W)
Time: 12:35:18
(UTC+00:00)

Exosat Rocket - Visible Passes

Search period start: 23 October 2021 00:00
Search period end: 02 November 2021 00:00
Orbit: 760 x 2515 km, 72.3° (Epoch: 22 October)

Date Brightness Start Highest point End Pass type
(mag) Time Alt. Az. Time Alt. Az. Time Alt. Az.
23 Oct 7.3 09:43:17 10° ESE 09:48:21 16° E 09:54:17 10° NE visible
23 Oct 5.2 11:39:08 10° SSW 11:47:38 89° ESE 12:00:01 10° NNE visible
24 Oct 7.3 09:32:10 10° ESE 09:37:12 16° E 09:43:03 10° NE visible
24 Oct 5.2 11:27:51 10° SSW 11:36:26 87° ESE 11:48:54 10° NNE visible
25 Oct 7.3 09:21:04 10° ESE 09:26:03 16° E 09:31:48 10° NE visible
25 Oct 5.2 11:16:34 10° SSW 11:25:13 85° ESE 11:37:46 10° NNE visible
26 Oct 7.3 09:09:58 10° ESE 09:14:54 15° E 09:20:33 10° NE visible
26 Oct 5.3 11:05:17 10° SSW 11:14:02 84° ESE 11:26:38 10° NNE visible
27 Oct 7.3 08:58:54 10° ESE 09:03:45 15° E 09:09:18 10° NE visible
27 Oct 5.3 10:54:22 12° SSW 11:02:50 83° ESE 11:15:32 10° NNE visible
28 Oct 7.3 08:47:50 10° ESE 08:52:36 15° E 08:58:02 10° NE visible
28 Oct 5.3 10:45:08 23° S 10:51:38 81° ESE 11:04:24 10° NNE visible
28 Oct 6.3 12:47:08 10° WSW 12:55:32 28° NW 13:06:11 10° N visible
29 Oct 7.2 08:36:45 10° ESE 08:41:26 14° E 08:46:47 10° NE visible
29 Oct 5.3 10:35:38 36° S 10:40:27 80° ESE 10:53:17 10° NNE visible
29 Oct 6.2 12:35:45 10° WSW 12:44:17 28° NW 12:55:07 10° N visible
30 Oct 7.2 08:26:46 12° ESE 08:30:18 14° E 08:35:31 10° NE visible
30 Oct 5.3 10:25:56 49° S 10:29:15 78° ESE 10:42:09 10° NNE visible
30 Oct 6.2 12:25:08 12° WSW 12:33:01 29° NW 12:44:01 10° N visible
31 Oct 7.2 08:16:56 13° E 08:19:10 14° E 08:24:14 10° NE visible
31 Oct 5.3 10:16:07 63° SSE 10:18:04 77° ESE 10:31:02 10° NNE visible
31 Oct 6.2 12:15:17 17° W 12:21:46 30° NW 12:32:56 10° N visible
01 Nov 7.3 08:07:00 13° E 08:08:01 14° E 08:12:57 10° NE visible
01 Nov 5.3 10:06:10 73° SE 10:06:53 76° ESE 10:19:54 10° NNE visible
01 Nov 6.1 12:05:20 22° W 12:10:31 31° NW 12:21:51 10° N visible
